SR5NLK-1 Weather Reports


Display with metric or nautical units.
time (UTC)temp
F
wind
direction
speed
MPH
gust
MPH
rain 1hr
in
rain 24hr
in
rain mn
in
humidity
%
barometer
mb
20260905211936 57 292 5.0 11.0 0.00 0.02 0.00 82 1028.7
20260905211436 57 292 8.0 15.0 0.00 0.02 0.00 82 1036.6
20260905210936 57 225 9.0 15.0 0.00 0.02 0.00 82 1058.8
20260905210436 57 225 10.0 13.0 0.00 0.02 0.00 82 1025.6
20260905205936 57 202 12.0 14.0 0.00 0.02 0.00 82 1061.1
20260905205436 57 225 14.0 14.0 0.00 0.02 0.00 81 1058.6
20260905205135 57 270 8.0 15.0 0.00 0.02 0.00 81 1059.9
20260905204936 57 202 3.0 15.0 0.00 0.02 0.00 81 1022.7
20260905204436 57 292 3.0 11.0 0.00 0.02 0.00 81 1030.8
20260905203936 57 270 3.0 12.0 0.00 0.02 0.00 81 997.2
20260905203436 58 270 3.0 14.0 0.00 0.02 0.00 81 1056.4
20260905202936 58 270 8.0 17.0 0.00 0.02 0.00 81 1020.9
20260905202436 58 270 12.0 15.0 0.00 0.02 0.00 81 1092.6
20260905202117 58 225 4.0 16.0 0.00 0.02 0.00 81 1048.5
20260905201936 58 225 4.0 16.0 0.00 0.02 0.00 81 1048.5
20260905201835 58 270 16.0 16.0 0.00 0.02 0.00 81 1057.9
20260905201436 58 247 9.0 19.0 0.00 0.02 0.00 81 1064.2
20260905200936 58 270 8.0 14.0 0.00 0.02 0.00 81 1039.1
20260905200436 58 292 9.0 14.0 0.00 0.02 0.00 81 1061.1
20260905195936 58 270 6.0 13.0 0.00 0.04 0.00 80 1052.7
20260905195436 58 292 6.0 12.0 0.00 0.04 0.00 80 1072.1
20260905194936 59 270 10.0 16.0 0.00 0.04 0.00 80 1078.1
20260905194535 59 247 8.0 14.0 0.00 0.04 0.00 79 983.8
20260905194436 59 315 2.0 14.0 0.00 0.04 0.00 79 1011.4
20260905193936 59 270 14.0 14.0 0.00 0.04 0.00 79 1067.1
20260905193436 59 225 7.0 14.0 0.00 0.04 0.00 77 1054.5
20260905192936 59 225 8.0 13.0 0.00 0.04 0.00 77 1064.2
20260905192436 59 247 3.0 20.0 0.00 0.04 0.00 76 1030.4
20260905191936 60 247 11.0 21.0 0.00 0.04 0.00 73 1040.4
20260905191436 61 270 15.0 16.0 0.00 0.04 0.00 70 1037.4
20260905191235 61 247 3.0 16.0 0.00 0.04 0.00 70 1062.4
20260905190936 61 270 9.0 16.0 0.00 0.04 0.00 69 1054.8
20260905190436 61 225 9.0 15.0 0.00 0.04 0.00 68 1064.3
20260905185936 61 202 10.0 10.0 0.00 0.08 0.00 68 1070.6
20260905185436 61 202 5.0 8.0 0.00 0.08 0.00 67 1081.6
20260905184936 61 202 2.0 9.0 0.00 0.08 0.00 67 1059.5
20260905184436 61 270 4.0 11.0 0.00 0.08 0.00 67 1053.6
20260905183935 62 247 5.0 10.0 0.00 0.08 0.00 67 1058.2
20260905183436 62 202 5.0 10.0 0.00 0.08 0.00 66 1063.9
20260905182936 62 270 10.0 14.0 0.00 0.08 0.00 66 1007.5
20260905182436 62 225 8.0 11.0 0.00 0.08 0.00 66 1067.4
20260905181936 62 247 7.0 10.0 0.00 0.08 0.00 66 1042.9
20260905181436 62 270 5.0 9.0 0.00 0.08 0.00 66 1051.7
20260905180936 62 292 4.0 14.0 0.00 0.08 0.00 66 1075.9
20260905180635 62 292 8.0 14.0 0.00 0.08 0.00 65 1040.6
20260905180436 62 292 10.0 14.0 0.00 0.08 0.00 65 1054.8
20260905175936 62 270 6.0 19.0 0.00 0.08 0.00 65 1003.6
20260905175436 62 225 8.0 21.0 0.00 0.08 0.00 65 1059.5
20260905174936 63 292 7.0 13.0 0.00 0.08 0.00 65 1065.8
20260905174436 63 270 6.0 19.0 0.00 0.08 0.00 64 1065.8
20260905173936 63 292 14.0 16.0 0.00 0.08 0.00 64 1053.2
20260905173436 63 292 7.0 15.0 0.00 0.08 0.00 64 1062.3
20260905173335 63 270 9.0 15.0 0.00 0.08 0.00 64 1059.5
20260905172936 63 225 4.0 11.0 0.00 0.08 0.00 64 982.3
20260905172436 63 270 6.0 12.0 0.00 0.08 0.00 64 1024.0
20260905171936 63 247 7.0 19.0 0.00 0.08 0.00 63 1030.3
20260905171436 64 270 7.0 13.0 0.00 0.08 0.00 63 1064.2
20260905170936 64 270 8.0 12.0 0.00 0.08 0.00 63 1070.8
20260905170436 64 270 4.0 17.0 0.00 0.08 0.00 62 1051.6
20260905170035 64 270 3.0 17.0 0.00 0.08 0.00 62 1037.7
20260905165936 64 202 7.0 14.0 0.00 0.08 0.00 62 1078.4
20260905165436 64 270 13.0 21.0 0.00 0.08 0.00 61 1046.9
20260905164936 65 247 13.0 16.0 0.00 0.08 0.00 60 1062.0
20260905164436 65 247 10.0 20.0 0.00 0.08 0.00 60 1053.2
20260905163936 65 247 11.0 19.0 0.00 0.08 0.00 60 1047.6
20260905163436 65 247 6.0 19.0 0.00 0.08 0.00 60 1075.2
20260905162936 64 247 14.0 18.0 0.00 0.08 0.00 61 1062.7
20260905162735 64 270 14.0 18.0 0.00 0.08 0.00 61 1070.6
20260905162436 64 270 9.0 12.0 0.00 0.08 0.00 60 1061.1
20260905161937 64 247 6.0 19.0 0.00 0.08 0.00 60 1015.2
20260905161436 64 270 12.0 20.0 0.00 0.08 0.00 59 1038.2
20260905160936 64 247 7.0 14.0 0.00 0.08 0.00 59 1075.2
20260905160436 65 247 7.0 18.0 0.00 0.08 0.00 58 1064.2
20260905155936 65 225 8.0 20.0 0.00 0.08 0.00 57 1035.0
20260905155435 66 247 12.0 18.0 0.00 0.08 0.00 57 1048.5
20260905154936 66 180 15.0 18.0 0.00 0.08 0.00 56 1054.8
20260905154436 66 225 17.0 24.0 0.00 0.08 0.00 55 1067.4
20260905153937 67 247 13.0 21.0 0.00 0.08 0.00 54 1069.0
20260905153436 67 292 6.0 21.0 0.00 0.08 0.00 55 1074.9
20260905152936 67 270 10.0 25.0 0.00 0.08 0.00 55 1078.4
20260905152436 67 270 16.0 20.0 0.00 0.08 0.00 56 1054.8
20260905152135 67 202 18.0 19.0 0.00 0.08 0.00 57 1076.8
20260905151936 67 202 12.0 19.0 0.00 0.08 0.00 57 1043.4
20260905151436 66 337 7.0 15.0 0.00 0.08 0.00 59 1086.3
20260905150937 66 225 8.0 24.0 0.00 0.08 0.00 59 1070.6
20260905150436 66 270 6.0 21.0 0.00 0.08 0.00 60 996.4
20260905145436 67 270 12.0 28.0 0.00 0.08 0.00 60 1075.4
20260905144936 68 270 13.0 27.0 0.00 0.08 0.00 58 1046.9
20260905144835 68 292 7.0 27.0 0.00 0.08 0.00 58 1076.9
20260905144436 69 292 23.0 23.0 0.00 0.08 0.00 54 1053.2
20260905143937 69 202 13.0 21.0 0.00 0.08 0.00 50 1053.2
20260905143436 70 270 15.0 22.0 0.00 0.08 0.00 50 1033.5
20260905142936 70 270 19.0 21.0 0.00 0.08 0.00 50 1065.8
20260905142436 70 202 5.0 23.0 0.00 0.08 0.00 50 1058.0
20260905141536 71 270 21.0 23.0 0.00 0.08 0.00 48 1079.9
20260905140936 71 315 8.0 19.0 0.00 0.08 0.00 47 1062.6
20260905140436 71 247 10.0 19.0 0.00 0.08 0.00 48 1062.6
20260905135936 72 292 7.0 19.0 0.00 0.08 0.00 47 1064.2
20260905135436 72 225 9.0 24.0 0.00 0.08 0.00 46 1080.0
20260905134937 73 270 12.0 24.0 0.00 0.08 0.00 47 1056.4
20260905134437 73 247 22.0 29.0 0.00 0.08 0.00 47 1058.0
20260905134236 72 202 18.0 20.0 0.00 0.08 0.00 48 1059.5
20260905133936 72 270 17.0 26.0 0.00 0.08 0.00 48 1076.8
20260905133437 71 45 6.0 17.0 0.00 0.08 0.00 49 1018.5
20260905132937 71 225 4.0 18.0 0.00 0.08 0.00 49 1073.7
20260905132437 71 270 11.0 19.0 0.00 0.08 0.00 48 1068.9
20260905131937 72 270 19.0 24.0 0.00 0.08 0.00 47 1080.4
20260905131437 72 247 18.0 20.0 0.00 0.08 0.00 47 1011.4
20260905130936 72 315 13.0 21.0 0.00 0.08 0.00 46 1045.7
20260905130437 72 247 12.0 21.0 0.00 0.08 0.00 46 1030.3
20260905125937 73 270 19.0 21.0 0.00 0.08 0.00 46 1076.5
20260905125437 73 270 17.0 23.0 0.00 0.08 0.00 45 1046.9
20260905124937 73 270 12.0 23.0 0.00 0.08 0.00 45 1045.7
20260905124523 72 270 17.0 23.0 0.00 0.08 0.00 46 1070.5
20260905124518 73 270 23.0 30.0 0.00 0.08 0.00 45 1067.1
20260905124437 73 270 23.0 30.0 0.00 0.08 0.00 45 1067.1
20260905123937 73 270 19.0 27.0 0.00 0.08 0.00 46 1081.5
20260905123636 72 270 10.0 23.0 0.00 0.08 0.00 46 1067.4
20260905123437 72 270 17.0 23.0 0.00 0.08 0.00 46 1070.5
20260905122937 71 202 17.0 30.0 0.00 0.08 0.00 46 1059.2
20260905122437 71 202 17.0 23.0 0.00 0.08 0.00 46 1089.4
20260905121937 71 90 7.0 28.0 0.00 0.08 0.00 47 1076.5
20260905121437 71 270 23.0 23.0 0.00 0.08 0.00 47 1085.2
20260905120937 71 270 21.0 29.0 0.00 0.08 0.00 46 1061.1
20260905120437 71 225 21.0 21.0 0.00 0.08 0.00 46 1070.5
20260905120336 71 247 16.0 25.0 0.00 0.08 0.00 45 1036.7
20260905115937 72 270 25.0 27.0 0.00 0.08 0.00 45 985.4
20260905114937 73 247 13.0 22.0 0.00 0.08 0.00 46 1073.7
20260905114437 73 180 9.0 23.0 0.00 0.08 0.00 46 1022.5
20260905113937 72 247 16.0 36.0 0.00 0.08 0.00 46 1061.8
20260905113437 73 292 12.0 22.0 0.00 0.08 0.00 46 1067.4
20260905113036 72 180 6.0 24.0 0.00 0.08 0.00 47 1042.9
20260905112937 72 225 18.0 24.0 0.00 0.08 0.00 47 985.4
20260905111938 71 292 9.0 25.0 0.00 0.08 0.00 46 1035.8
20260905111437 72 247 18.0 22.0 0.00 0.08 0.00 46 1056.4
20260905110937 72 270 12.0 36.0 0.00 0.08 0.00 48 1051.6
20260905110437 72 270 16.0 25.0 0.00 0.08 0.00 48 1061.1
20260905105937 72 270 11.0 21.0 0.00 0.08 0.00 47 1030.3
20260905105736 72 247 8.0 25.0 0.00 0.08 0.00 48 1005.1
20260905105437 71 315 8.0 31.0 0.00 0.08 0.00 48 1034.7
20260905104937 70 180 15.0 31.0 0.00 0.08 0.00 51 1076.6
20260905104437 69 292 8.0 21.0 0.00 0.08 0.00 53 1054.8
20260905103937 68 90 11.0 18.0 0.00 0.08 0.00 54 1037.1
20260905103437 68 270 17.0 28.0 0.00 0.08 0.00 54 1059.5
20260905102937 69 270 20.0 27.0 0.00 0.08 0.00 52 1022.5
20260905102436 70 270 27.0 27.0 0.00 0.08 0.00 50 1061.1
20260905101437 73 270 26.0 31.0 0.00 0.08 0.00 47 1036.6
20260905100938 73 270 17.0 24.0 0.00 0.08 0.00 48 1059.5
20260905100437 73 247 20.0 23.0 0.00 0.08 0.00 50 1036.6
20260905095937 72 337 10.0 23.0 0.00 0.08 0.00 48 1051.6
20260905095437 73 270 19.0 32.0 0.00 0.08 0.00 50 1077.1
20260905095136 72 270 5.0 25.0 0.00 0.08 0.00 50 1053.2
20260905094937 72 270 10.0 29.0 0.00 0.08 0.00 50 1048.5
20260905094437 71 247 6.0 21.0 0.00 0.08 0.00 52 1068.9
20260905093937 71 270 9.0 25.0 0.00 0.08 0.00 51 1056.4
20260905093437 71 270 11.0 33.0 0.00 0.08 0.00 51 1075.2
20260905092937 71 270 24.0 44.0 0.00 0.08 0.00 51 1068.6
20260905092437 71 247 10.0 32.0 0.00 0.08 0.00 51 1080.0
20260905091937 72 270 8.0 25.0 0.00 0.08 0.00 52 1056.4
20260905091836 71 270 17.0 27.0 0.00 0.08 0.00 53 1043.8
20260905091437 71 225 9.0 27.0 0.00 0.08 0.00 54 1053.2
20260905090937 70 337 7.0 21.0 0.00 0.08 0.00 54 1056.4
20260905090437 69 292 6.0 21.0 0.00 0.08 0.00 56 1039.1
20260905085937 69 225 8.0 24.0 0.00 0.08 0.00 56 1081.5
20260905085437 69 270 14.0 29.0 0.00 0.08 0.00 55 1065.9
20260905084937 69 292 13.0 26.0 0.00 0.08 0.00 55 1073.7
20260905084536 70 225 12.0 34.0 0.00 0.08 0.00 54 1050.1
20260905084437 71 292 26.0 34.0 0.00 0.08 0.00 53 1046.9
20260905083937 72 202 13.0 21.0 0.00 0.08 0.00 55 1073.7
20260905083437 72 247 12.0 21.0 0.00 0.08 0.00 55 1086.3
20260905082937 71 247 17.0 24.0 0.00 0.08 0.00 56 1065.8
20260905082437 71 270 14.0 27.0 0.00 0.08 0.00 56 1078.4
20260905081937 71 202 16.0 27.0 0.00 0.08 0.00 55 1069.0
20260905081236 72 247 14.0 21.0 0.00 0.08 0.00 56 1046.9
20260905080937 72 157 17.0 23.0 0.00 0.08 0.00 56 1046.9
20260905080437 72 270 10.0 20.0 0.00 0.08 0.00 56 1048.0
20260905075937 71 247 17.0 22.0 0.00 0.08 0.00 59 1067.4
20260905075437 69 270 17.0 19.0 0.00 0.08 0.00 63 1070.5
20260905074937 68 270 17.0 23.0 0.00 0.08 0.00 64 1072.1
20260905074437 67 292 13.0 20.0 0.00 0.08 0.00 63 1046.6
20260905073936 68 202 9.0 24.0 0.00 0.08 0.00 63 1053.2
20260905073437 68 270 17.0 29.0 0.00 0.08 0.00 63 1044.2
20260905072937 67 247 6.0 23.0 0.00 0.08 0.00 64 1039.0
20260905072437 67 247 7.0 19.0 0.00 0.08 0.00 66 1085.0
20260905071937 66 270 24.0 24.0 0.00 0.08 0.00 66 1063.8
20260905071437 66 270 14.0 33.0 0.00 0.08 0.00 67 1040.6
20260905070937 66 270 33.0 33.0 0.00 0.08 0.00 66 1046.9
20260905070636 66 270 16.0 22.0 0.00 0.08 0.00 65 1050.1
20260905070437 66 270 12.0 19.0 0.00 0.08 0.00 65 1007.4
20260905065937 67 315 17.0 22.0 0.00 0.08 0.00 64 1029.3
20260905065438 67 247 10.0 21.0 0.00 0.08 0.00 63 1053.2
20260905064937 67 270 12.0 17.0 0.00 0.08 0.00 64 1066.1
20260905064437 68 247 8.0 15.0 0.00 0.08 0.00 64 1081.5
20260905063937 68 270 14.0 21.0 0.00 0.08 0.00 63 1044.3
20260905063437 68 270 21.0 22.0 0.00 0.08 0.00 63 1046.9
20260905063336 68 292 10.0 22.0 0.00 0.08 0.00 62 1050.1
20260905062937 69 225 13.0 24.0 0.00 0.08 0.00 62 1051.7
20260905062437 69 315 7.0 23.0 0.00 0.08 0.00 62 1078.4
20260905061937 69 225 10.0 20.0 0.00 0.08 0.00 62 1080.1
20260905061437 69 270 11.0 23.0 0.00 0.08 0.00 63 1070.5
20260905060937 69 270 8.0 23.0 0.00 0.08 0.00 64 1053.9
20260905060437 69 247 3.0 21.0 0.00 0.08 0.00 65 1060.3
20260905060036 68 270 18.0 18.0 0.00 0.08 0.00 69 1072.9
20260905055937 67 270 7.0 17.0 0.00 0.08 0.00 69 1013.0
20260905055437 66 247 19.0 21.0 0.00 0.08 0.00 69 1063.3
20260905054937 65 292 8.0 19.0 0.00 0.08 0.00 71 1075.1
20260905054437 64 292 7.0 19.0 0.00 0.08 0.00 73 1040.6
20260905053937 64 270 9.0 22.0 0.00 0.08 0.00 74 1070.6
20260905053438 63 202 8.0 17.0 0.00 0.08 0.00 73 1061.6
20260905052937 63 270 5.0 19.0 0.00 0.08 0.00 74 1059.5
20260905052736 63 292 8.0 17.0 0.00 0.08 0.00 74 1040.6
20260905052437 63 270 8.0 21.0 0.00 0.08 0.00 74 1070.6
20260905051937 63 270 19.0 19.0 0.00 0.08 0.00 74 1069.2
20260905051437 64 270 16.0 18.0 0.00 0.08 0.00 76 1067.4
20260905050937 63 247 14.0 14.0 0.00 0.08 0.00 78 1080.8
20260905050437 62 247 5.0 14.0 0.00 0.08 0.00 80 1057.4
20260905045937 61 292 8.0 14.0 0.00 0.08 0.00 79 1038.7
20260905045437 61 292 10.0 19.0 0.00 0.08 0.00 79 1056.4
20260905044938 60 270 14.0 23.0 0.00 0.08 0.00 81 1094.1
20260905044438 60 247 7.0 24.0 0.00 0.08 0.00 82 1059.5
20260905043937 59 247 20.0 20.0 0.00 0.08 0.00 84 1054.8
20260905043437 59 270 17.0 20.0 0.00 0.08 0.00 84 1046.9
20260905042937 59 292 7.0 21.0 0.00 0.08 0.00 85 1027.2
20260905042437 59 225 16.0 25.0 0.00 0.08 0.00 85 1050.1
20260905042136 59 270 8.0 33.0 0.00 0.08 0.00 86 1070.0
20260905041937 59 247 11.0 33.0 0.00 0.08 0.00 86 1065.4
20260905041437 59 270 20.0 22.0 0.00 0.08 0.00 87 1044.1
20260905040937 59 270 22.0 29.0 0.00 0.08 0.00 87 998.8
20260905040438 59 225 10.0 27.0 0.00 0.08 0.00 88 1028.0
20260905035938 58 270 15.0 22.0 0.02 0.08 0.00 88 1021.6
20260905035438 58 270 12.0 21.0 0.02 0.08 0.00 88 1047.3
20260905034938 58 292 16.0 20.0 0.02 0.08 0.00 88 1034.3
20260905034837 58 292 14.0 20.0 0.02 0.08 0.00 89 1043.8
20260905034438 58 180 4.0 23.0 0.02 0.08 0.00 88 1051.2
20260905033938 58 270 20.0 20.0 0.02 0.08 0.00 88 1031.2
20260905033438 58 292 8.0 19.0 0.02 0.08 0.00 87 1062.7
20260905032938 58 292 5.0 17.0 0.02 0.08 0.00 87 1018.5
20260905032549 59 270 12.0 15.0 0.02 0.08 0.00 85 1021.7
20260905032438 59 270 12.0 15.0 0.02 0.08 0.00 85 1021.7
20260905031938 60 270 13.0 29.0 0.02 0.08 0.00 84 1034.3
20260905031537 60 292 10.0 30.0 0.02 0.08 0.00 83 1009.0
20260905031438 61 270 19.0 30.0 0.02 0.08 0.00 82 999.5
20260905031132 63 270 29.0 29.0 0.02 0.08 0.00 82 1031.2
20260905030938 63 270 29.0 29.0 0.02 0.08 0.00 82 1031.2
20260905030438 63 247 19.0 19.0 0.00 0.06 0.00 82 1040.6
20260905025938 63 270 10.0 19.0 0.00 0.06 0.00 81 1031.2
20260905025438 63 270 19.0 19.0 0.00 0.06 0.00 81 1024.8
20260905024938 63 202 8.0 21.0 0.00 0.06 0.00 81 1040.6
20260905024438 63 225 16.0 16.0 0.00 0.06 0.00 81 1021.7
20260905024237 63 157 8.0 17.0 0.00 0.06 0.00 80 1040.6
20260905023938 63 270 8.0 17.0 0.00 0.06 0.00 80 1043.8
20260905023438 64 225 10.0 23.0 0.00 0.06 0.00 81 1024.8
20260905022938 64 247 8.0 20.0 0.00 0.06 0.00 81 1018.5
20260905022438 64 225 9.0 18.0 0.00 0.06 0.00 81 1012.2
20260905021938 64 202 6.0 24.0 0.00 0.06 0.00 81 1031.2
20260905021438 64 270 12.0 15.0 0.00 0.06 0.00 81 1031.2
20260905020937 64 202 13.0 21.0 0.00 0.06 0.00 81 1028.0
20260905020438 64 225 2.0 14.0 0.00 0.06 0.00 81 1037.5
20260905015938 64 225 11.0 14.0 0.00 0.06 0.00 81 1043.8
20260905015438 64 202 6.0 15.0 0.00 0.06 0.00 81 1015.4
20260905014938 64 225 13.0 17.0 0.00 0.06 0.00 81 1028.0
20260905014438 64 270 6.0 21.0 0.00 0.06 0.00 81 1015.4
20260905013938 65 225 15.0 21.0 0.00 0.06 0.00 81 1034.3
20260905013637 65 270 12.0 20.0 0.00 0.06 0.00 81 1034.3
20260905013438 65 225 10.0 19.0 0.00 0.06 0.00 81 1024.9
20260905012938 65 225 10.0 22.0 0.00 0.06 0.00 81 1009.0
20260905012438 65 292 9.0 20.0 0.00 0.06 0.00 82 1040.6
20260905011938 65 247 10.0 24.0 0.00 0.06 0.00 82 1012.2
20260905011438 65 225 4.0 19.0 0.00 0.06 0.00 82 1031.1
20260905010938 65 292 7.0 21.0 0.00 0.06 0.00 83 1021.7
20260905010438 65 270 16.0 19.0 0.00 0.06 0.00 84 1053.2
20260905010337 65 292 10.0 19.0 0.00 0.06 0.00 84 1040.7
20260905005938 65 225 17.0 19.0 0.00 0.06 0.00 84 1031.2
20260905005438 65 202 15.0 21.0 0.00 0.06 0.00 84 1050.1
20260905004938 65 247 15.0 18.0 0.00 0.06 0.00 84 1040.6
20260905004438 65 225 12.0 16.0 0.00 0.06 0.00 85 1043.8
20260905003938 65 270 8.0 18.0 0.00 0.06 0.00 85 1058.6
20260905003438 65 225 8.0 17.0 0.00 0.06 0.00 85 1040.6
20260905003037 65 247 11.0 19.0 0.00 0.06 0.00 86 1003.1
20260905002938 65 225 19.0 19.0 0.00 0.06 0.00 86 1034.3
20260905002438 65 225 6.0 21.0 0.00 0.06 0.00 86 1024.4
20260905001938 65 202 10.0 15.0 0.00 0.06 0.00 86 1059.4
20260905001438 65 202 6.0 20.0 0.00 0.06 0.00 86 1062.6
20260905000938 65 247 12.0 17.0 0.00 0.06 0.00 87 1069.7
20260905000439 65 180 9.0 19.0 0.00 0.06 0.00 87 1002.7
20260904235938 65 225 11.0 17.0 0.00 0.06 0.00 87 1053.1
20260904235737 65 270 9.0 19.0 0.00 0.06 0.00 87 1040.7
20260904235438 65 225 17.0 19.0 0.00 0.06 0.00 87 1048.7
20260904234938 65 247 8.0 15.0 0.00 0.06 0.00 87 1067.4
20260904234438 65 270 7.0 16.0 0.00 0.06 0.00 87 997.3
20260904233939 65 225 12.0 17.0 0.00 0.06 0.00 87 1038.1
20260904233438 65 270 11.0 15.0 0.00 0.06 0.00 87 1045.6
20260904232938 65 292 8.0 12.0 0.00 0.06 0.00 87 1050.2
20260904232437 64 247 6.0 15.0 0.00 0.06 0.00 87 1056.3
20260904231938 64 225 6.0 13.0 0.00 0.06 0.00 87 1013.5
20260904231438 64 247 9.0 14.0 0.00 0.06 0.00 87 1053.6
20260904230938 64 270 9.0 13.0 0.00 0.06 0.00 87 1040.7
20260904230438 64 247 4.0 11.0 0.00 0.06 0.00 87 1064.3
20260904225939 64 225 8.0 16.0 0.00 0.06 0.00 87 1070.5
20260904225438 64 225 8.0 17.0 0.00 0.06 0.00 86 1024.5
20260904225137 64 202 9.0 18.0 0.00 0.06 0.00 86 1043.5
20260904224938 64 247 9.0 18.0 0.00 0.06 0.00 86 1078.5
20260904224438 64 247 14.0 17.0 0.00 0.06 0.00 86 1076.1
20260904223938 64 247 4.0 14.0 0.00 0.06 0.00 86 1083.1
20260904223438 64 202 10.0 14.0 0.00 0.06 0.00 86 1053.2
20260904222938 64 202 9.0 16.0 0.00 0.06 0.00 85 1041.4
20260904222438 64 225 3.0 12.0 0.00 0.06 0.00 85 1079.8
20260904221938 64 202 5.0 12.0 0.00 0.06 0.00 85 1013.0
20260904221837 64 202 9.0 12.0 0.00 0.06 0.00 85 1059.3
20260904221438 64 270 8.0 16.0 0.00 0.06 0.00 85 1024.0
20260904220938 64 270 7.0 15.0 0.00 0.06 0.00 85 1060.8
20260904220438 64 225 8.0 10.0 0.00 0.06 0.00 85 1045.3
20260904215938 64 270 5.0 16.0 0.00 0.08 0.00 85 1070.9
20260904215438 64 225 6.0 12.0 0.00 0.08 0.00 85 1070.8
20260904214938 64 225 12.0 14.0 0.00 0.08 0.00 84 1066.1
20260904214537 64 202 11.0 11.0 0.00 0.08 0.00 84 1051.7
20260904214438 64 270 6.0 10.0 0.00 0.08 0.00 84 1050.2
20260904213938 64 270 4.0 14.0 0.00 0.08 0.00 85 1041.0
20260904213438 64 180 6.0 14.0 0.00 0.08 0.00 85 1051.4
20260904212938 64 247 10.0 17.0 0.00 0.08 0.00 85 1061.0
20260904212438 64 270 8.0 17.0 0.00 0.08 0.00 85 1085.9